This demonstration page uses our WeatherBlox Daily Observations layout. Learn more.

Left ArrowRight Arrow

Hourly Observations for July 21, 2018

Temp ( °F °C ) Dew Point ( °F °C ) Humidity (%) Winds ( mph kmh ) Pressure ( in mb ) Visibility ( mi km ) Precip ( " mm )
12:03 am 00:03 Cloudy 66 19 66 19 100 100 SSE 8 13 29.77 1008 10 16.0934 N/A
12:24 am 00:24 Cloudy 66 19 66 19 100 100 SSE 6 9 29.77 1008 10 16.0934 N/A
12:45 am 00:45 Cloudy 66 19 66 19 100 100 S 5 7 29.77 1008 10 16.0934 N/A
1:04 am 01:04 Cloudy 66 19 66 19 100 100 SSE 8 13 29.77 1008 10 16.0934 N/A
1:24 am 01:24 Cloudy 66 19 66 19 100 100 SSE 5 7 29.74 1007 7 11.26538 N/A
1:44 am 01:44 Cloudy 66 19 66 19 100 100 S 6 9 29.74 1007 7 11.26538 N/A
2:03 am 02:03 Cloudy 66 19 66 19 100 100 S 5 7 29.74 1007 7 11.26538 N/A
2:23 am 02:23 Cloudy 66 19 66 19 100 100 S 6 9 29.74 1007 7 11.26538 N/A
2:52 am 02:52 Cloudy 66 19 66 19 100 100 SSW 5 7 29.71 1006 7 11.26538 N/A
3:08 am 03:08 Partly Cloudy 66 19 66 19 100 100 SSW 5 7 29.71 1006 7 11.26538 N/A
3:22 am 03:22 Mostly Cloudy 66 19 66 19 100 100 SW 5 7 29.71 1006 10 16.0934 N/A
3:43 am 03:43 Cloudy 68 20 68 20 100 100 SW 5 7 29.71 1006 10 16.0934 N/A
4:15 am 04:15 Cloudy 68 20 68 20 100 100 SSW 6 9 29.71 1006 10 16.0934 N/A
4:28 am 04:28 Cloudy 68 20 68 20 100 100 SSW 6 9 29.71 1006 10 16.0934 N/A
4:42 am 04:42 Cloudy 68 20 68 20 100 100 SSW 6 9 29.71 1006 10 16.0934 N/A
5:14 am 05:14 Cloudy 68 20 68 20 100 100 S 6 9 29.68 1005 10 16.0934 N/A
5:34 am 05:34 Cloudy 68 20 68 20 100 100 SSW 6 9 29.71 1006 10 16.0934 N/A
5:45 am 05:45 Cloudy 68 20 68 20 100 100 SSW 6 9 29.71 1006 10 16.0934 N/A
6:05 am 06:05 Mostly Cloudy 68 20 68 20 100 100 SW 7 11 29.71 1006 10 16.0934 N/A
6:23 am 06:23 Mostly Cloudy 68 20 68 20 100 100 SW 10 17 29.71 1006 10 16.0934 N/A
6:42 am 06:42 Cloudy 68 20 68 20 100 100 SW 8 13 29.71 1006 10 16.0934 N/A
7:04 am 07:04 Mostly Cloudy 68 20 68 20 100 100 SW 9 15 29.71 1006 10 16.0934 N/A
7:25 am 07:25 Cloudy 68 20 68 20 100 100 SW 8 13 29.71 1006 10 16.0934 N/A
7:45 am 07:45 Cloudy 68 20 68 20 100 100 SW 9 15 29.71 1006 10 16.0934 N/A
8:02 am 08:02 Cloudy 68 20 68 20 100 100 SW 9 15 29.71 1006 10 16.0934 N/A
8:23 am 08:23 Cloudy 68 20 68 20 100 100 WSW 9 15 29.71 1006 10 16.0934 N/A
8:44 am 08:44 Cloudy 70 21 68 20 94 94 WSW 12 19 29.71 1006 10 16.0934 N/A
9:06 am 09:06 Cloudy 68 20 68 20 100 100 SW 10 17 29.71 1006 10 16.0934 N/A
9:24 am 09:24 Cloudy 68 20 68 20 100 100 SW 10 17 29.71 1006 10 16.0934 N/A
9:43 am 09:43 Cloudy 68 20 68 20 100 100 WSW 8 13 29.71 1006 10 16.0934 N/A
10:02 am 10:02 Cloudy 68 20 68 20 100 100 WSW 6 9 29.74 1007 5 8.0467 N/A
10:23 am 10:23 Cloudy 66 19 66 19 100 100 WSW 8 13 29.74 1007 7 11.26538 N/A
10:44 am 10:44 Cloudy 66 19 66 19 100 100 WSW 9 15 29.74 1007 5 8.0467 N/A
11:03 am 11:03 Cloudy 66 19 66 19 100 100 WSW 9 15 29.74 1007 1.25 2.011675 N/A
11:22 am 11:22 Cloudy 66 19 66 19 100 100 SW 9 15 29.74 1007 3 4.82802 N/A
11:44 am 11:44 Cloudy 68 20 68 20 100 100 WSW 8 13 29.74 1007 5 8.0467 N/A
12:05 pm 12:05 Cloudy 68 20 68 20 100 100 WSW 10 17 29.74 1007 3 4.82802 N/A
12:23 pm 12:23 Cloudy 68 20 68 20 100 100 SW 6 9 29.74 1007 4 6.43736 N/A
12:43 pm 12:43 Cloudy 70 21 70 21 100 100 WSW 9 15 29.71 1006 10 16.0934 N/A
1:02 pm 13:02 Cloudy 70 21 70 21 100 100 WSW 13 20 29.71 1006 3 4.82802 N/A
1:22 pm 13:22 Cloudy 68 20 68 20 100 100 SW 12 19 29.71 1006 2 3.21868 N/A
1:43 pm 13:43 Cloudy 70 21 70 21 100 100 WSW 9 15 29.71 1006 10 16.0934 N/A
2:06 pm 14:06 Mostly Cloudy 73 23 72 22 94 94 WSW 7 11 29.71 1006 10 16.0934 N/A
2:25 pm 14:25 Cloudy 73 23 73 23 100 100 SW 9 15 29.68 1005 10 16.0934 N/A
2:42 pm 14:42 Cloudy 70 21 70 21 100 100 WSW 12 19 29.68 1005 10 16.0934 N/A
3:03 pm 15:03 Cloudy 72 22 72 22 100 100 SW 9 15 29.68 1005 5 8.0467 N/A
3:25 pm 15:25 Cloudy 72 22 72 22 100 100 WSW 9 15 29.68 1005 10 16.0934 N/A
3:44 pm 15:44 Cloudy 73 23 72 22 94 94 W 8 13 29.68 1005 10 16.0934 N/A
4:02 pm 16:02 Cloudy 70 21 70 21 100 100 WSW 9 15 29.68 1005 2 3.21868 N/A
4:25 pm 16:25 Cloudy 70 21 70 21 100 100 WSW 8 13 29.68 1005 3 4.82802 N/A
4:46 pm 16:46 Cloudy 72 22 72 22 100 100 WSW 6 9 29.68 1005 10 16.0934 N/A
5:03 pm 17:03 Mostly Cloudy 73 23 73 23 100 100 WSW 8 13 29.68 1005 10 16.0934 N/A
5:23 pm 17:23 Cloudy 72 22 72 22 100 100 WSW 7 11 29.68 1005 7 11.26538 N/A
5:42 pm 17:42 Cloudy 70 21 70 21 100 100 W 6 9 29.68 1005 2 3.21868 N/A
6:02 pm 18:02 Cloudy 70 21 70 21 100 100 W 9 15 29.71 1006 10 16.0934 N/A
6:24 pm 18:24 Cloudy 72 22 72 22 100 100 WNW 12 19 29.68 1005 10 16.0934 N/A
6:42 pm 18:42 Cloudy 72 22 72 22 100 100 NW 7 11 29.68 1005 10 16.0934 N/A
7:02 pm 19:02 Cloudy 70 21 70 21 100 100 WNW 14 22 29.68 1005 3 4.82802 N/A
7:22 pm 19:22 Cloudy 70 21 70 21 100 100 WNW 9 15 29.68 1005 10 16.0934 N/A
7:43 pm 19:43 Cloudy 72 22 72 22 100 100 WNW 8 13 29.68 1005 5 8.0467 N/A
8:03 pm 20:03 Cloudy 72 22 72 22 100 100 WNW 12 19 29.68 1005 10 16.0934 N/A
8:24 pm 20:24 Cloudy 70 21 70 21 100 100 NW 13 20 29.71 1006 7 11.26538 N/A
8:42 pm 20:42 Cloudy 70 21 70 21 100 100 NW 12 19 29.71 1006 10 16.0934 N/A
9:02 pm 21:02 Cloudy 70 21 70 21 100 100 NW 13 20 29.71 1006 10 16.0934 N/A
9:23 pm 21:23 Cloudy 70 21 70 21 100 100 NW 10 17 29.71 1006 10 16.0934 N/A
9:43 pm 21:43 Cloudy 70 21 70 21 100 100 NW 14 22 29.71 1006 10 16.0934 N/A
10:06 pm 22:06 Cloudy 70 21 70 21 100 100 NW 12 19 29.71 1006 10 16.0934 N/A
10:24 pm 22:24 Cloudy 68 20 68 20 100 100 NNW 13 20 29.71 1006 7 11.26538 N/A
10:42 pm 22:42 Cloudy 68 20 68 20 100 100 NNW 13 20 29.71 1006 7 11.26538 N/A
11:02 pm 23:02 Cloudy 68 20 68 20 100 100 NW 12 19 29.71 1006 10 16.0934 N/A
11:24 pm 23:24 Mostly Cloudy 68 20 68 20 100 100 NW 10 17 29.71 1006 10 16.0934 N/A
11:42 pm 23:42 Mostly Cloudy 68 20 68 20 100 100 NW 12 19 29.71 1006 10 16.0934 N/A

Powered by AerisWeather